CZ-6A DEB, 54401

Orbit data source: Space-Track

CZ-6A DEB, 54401 is space debris in SSO originally from a launch on Fri, 11 Nov 2022 UTC launched from the Taiyaun Space Center, China (TSC). Debris objects in space refer to the collection of defunct objects orbiting the Earth. Examples of debris include non-operational satellites, rocket bodies, and fragments generated from explosions, collisions, or faulty payload assembly.

Loading next visibility...
Identifier
54401, 2022-151DZ
Orbit
SSO
Country
Flag of CNCN / PRC
Related business
Manufacturer
SAST
Mission
Spacecraft
Bus & Motor
Unknown
Mass
Unknown
Launch date (UTC)
2022-11-11 (4 years ago)
Launch vehicle
Unknown
Launch site
Taiyaun Space Center, China (TSC)
Object type
Payload
Rocket body
Debris
Shape & HBR
Unknown shape, 0.1 m
Radar Cross Section
Small (<0.1 m²)

Expand to show TLE details & history
Last TLE update: 2 days ago

TLE from 2 days ago
0 CZ-6A DEB
1 54401U 22151DZ  26171.42844118  .00003482  00000-0  12379-2 0  9995
2 54401  98.6534 170.5323 0115495 129.2872 231.8623 14.31302048186936
Epoch: 2026-06-20T10:16Z
TLE epoch observation values (Epoch: 2026-06-20T10:16:57.317Z)
Latitude
-0.00005°
Longitude
107.65028°
Altitude
842.018 km
Speed
7.405 km/s
True Right ascension
11h 22m 07s
True Declination
0° 00' 00"
Sunlit
Object was in daylight at epoch
Visualization orbit readout
Latitude
Unknown
Longitude
Unknown
Altitude
Unknown
Speed
Unknown
Apparent Right ascension
Unknown
Apparent Declination
Unknown
Sunlit
N/A
Visualization observer readout
Local Sidereal Time
21:31:52
Azimuth
Unknown
Elevation
Unknown
Doppler factor
Unknown
Orbital elements
Apogee altitude
867.247 km
Perigee altitude
701.797 km
Semi-major axis
7,162.659 km
Eccentricity
0.01155
Inclination
98.6534°
RAAN
170.5323°
Arg. of periapsis
129.2872°
True anomaly
230.83061°
Mean anomaly
231.8623°
Eccentric anomaly
231.34553°
Mean motion
3.5804 °/min
Orbital period
100.55 mins
BSTAR
0.0012379
Loading maneuver chart data...
Computing Atmospheric mass density...
Loading historical data...
Loading historical data...
Loading historical data...
Loading historical data...
Loading historical data...
Loading historical data...
Loading historical data...

Documentation

Showing up to 5 results
|